TimeEDT,TemperatureF,Dew PointF,Humidity,Sea Level PressureIn,VisibilityMPH,Wind Direction,Wind SpeedMPH,Gust SpeedMPH,PrecipitationIn,Events,Conditions,WindDirDegrees,DateUTC
12:54 AM,55.0,52.0,89,30.00,7.0,Calm,Calm,-,N/A,,Clear,0,2013-10-19 04:54:00
1:54 AM,55.9,52.0,87,29.99,9.0,Calm,Calm,-,N/A,,Clear,0,2013-10-19 05:54:00
2:54 AM,55.9,52.0,87,29.97,7.0,Calm,Calm,-,N/A,,Scattered Clouds,0,2013-10-19 06:54:00
3:54 AM,59.0,54.0,83,29.95,8.0,Calm,Calm,-,N/A,,Overcast,0,2013-10-19 07:54:00
4:42 AM,60.8,55.4,82,29.96,9.0,Calm,Calm,-,N/A,,Overcast,0,2013-10-19 08:42:00
4:54 AM,60.1,55.0,83,29.96,10.0,Calm,Calm,-,N/A,,Overcast,0,2013-10-19 08:54:00
5:13 AM,60.8,55.4,82,29.96,10.0,Calm,Calm,-,N/A,,Overcast,0,2013-10-19 09:13:00
5:54 AM,62.1,57.0,84,29.96,10.0,Calm,Calm,-,N/A,,Overcast,0,2013-10-19 09:54:00
6:54 AM,64.0,55.9,75,29.96,10.0,East,4.6,-,N/A,,Overcast,90,2013-10-19 10:54:00
7:54 AM,64.9,55.9,73,29.96,10.0,ESE,8.1,-,N/A,,Overcast,110,2013-10-19 11:54:00
8:54 AM,64.9,57.9,78,29.97,10.0,SE,8.1,-,N/A,,Overcast,140,2013-10-19 12:54:00
9:54 AM,64.9,57.0,75,29.97,10.0,SE,5.8,-,N/A,,Overcast,130,2013-10-19 13:54:00
10:28 AM,66.2,57.2,73,29.96,10.0,SSE,4.6,-,N/A,,Overcast,150,2013-10-19 14:28:00
10:54 AM,66.0,57.9,75,29.95,10.0,SE,5.8,-,N/A,,Overcast,140,2013-10-19 14:54:00
11:11 AM,66.2,59.0,78,29.94,10.0,SE,6.9,-,N/A,,Overcast,140,2013-10-19 15:11:00
11:54 AM,66.9,59.0,76,29.93,10.0,SE,9.2,-,N/A,,Overcast,130,2013-10-19 15:54:00
12:08 PM,66.2,59.0,78,29.93,10.0,SE,8.1,-,N/A,,Overcast,130,2013-10-19 16:08:00
12:54 PM,69.1,59.0,70,29.90,10.0,SE,6.9,-,N/A,,Overcast,130,2013-10-19 16:54:00
1:54 PM,68.0,60.1,76,29.87,10.0,SSE,6.9,-,N/A,,Overcast,150,2013-10-19 17:54:00
2:54 PM,69.1,61.0,75,29.86,10.0,South,8.1,-,N/A,,Overcast,190,2013-10-19 18:54:00
3:54 PM,69.1,61.0,75,29.84,10.0,South,5.8,-,N/A,,Overcast,180,2013-10-19 19:54:00
4:54 PM,69.1,62.1,78,29.84,10.0,SW,8.1,-,N/A,,Overcast,220,2013-10-19 20:54:00
5:54 PM,69.1,62.1,78,29.83,10.0,SW,5.8,-,N/A,,Overcast,220,2013-10-19 21:54:00
6:08 PM,69.8,62.6,78,29.83,10.0,SW,4.6,-,0.00,Rain,Light Rain,220,2013-10-19 22:08:00
6:54 PM,69.1,63.0,81,29.83,5.0,SW,5.8,-,0.00,,Haze,220,2013-10-19 22:54:00
7:54 PM,69.1,64.0,84,29.85,5.0,West,9.2,-,N/A,,Haze,270,2013-10-19 23:54:00
8:28 PM,68.0,64.4,88,29.84,8.0,SW,6.9,-,0.00,Rain,Light Rain,230,2013-10-20 00:28:00
8:54 PM,68.0,64.0,87,29.84,9.0,SW,5.8,-,0.00,,Mostly Cloudy,230,2013-10-20 00:54:00
9:04 PM,68.0,64.4,88,29.85,9.0,WSW,6.9,-,N/A,,Overcast,240,2013-10-20 01:04:00
9:54 PM,68.0,63.0,84,29.86,10.0,West,6.9,-,N/A,,Overcast,260,2013-10-20 01:54:00
10:01 PM,68.0,62.6,83,29.86,10.0,West,6.9,-,N/A,,Scattered Clouds,260,2013-10-20 02:01:00
10:54 PM,66.9,63.0,87,29.86,10.0,West,5.8,-,N/A,,Mostly Cloudy,270,2013-10-20 02:54:00
11:07 PM,66.2,62.6,88,29.86,10.0,West,5.8,-,N/A,,Scattered Clouds,270,2013-10-20 03:07:00
11:54 PM,66.9,60.1,79,29.86,10.0,West,6.9,-,N/A,,Clear,280,2013-10-20 03:54:00